Regional Weather Roundup
Issued by NWS Grand Forks, ND

Home | Current Version | Previous Version | Graphics & Text | Print | Product List | Glossary On
Versions: 1 2 3 4 5 6 7 8 9 10 11 12 13 14 15 16 17 18 19 20 21 22 23 24 25 26 27 28 29 30 31 32 33 34 35 36 37 38 39 40 41 42 43 44 45 46 47 48 49 50
000
ASUS43 KFGF 231031
RWRFGF
PRAIRIE TO PINES  WEATHER ROUNDUP
NATIONAL WEATHER SERVICE EASTERN NORTH DAKOTA/GRAND FORKS ND
500 AM CDT MON APR 23 2018

 **SATELLITE DATA USED TO AUGMENT SKY COVER AT AUTOMATED STATIONS**
 *****  WEATHER ACROSS EASTERN NORTH DAKOTA  *****

CITY           SKY/WX    TMP DP  RH WIND       PRES   REMARKS
GRAND FORKS    FAIR      36  36 100 VRB3      30.13R
GRAND FRKS AFB FAIR      43  37  80 W9        30.13R
GRAND FRKS NWS   N/A     40  37  87 W2        30.11R
DEVILS LAKE    FAIR      38  30  73 NW5       30.16R
FARGO          MOCLDY    42  37  82 S7        30.17R
WAHPETON ARPT  FAIR      36  32  87 SE7       30.19S
$$

 ***** WEATHER ACROSS CENTRAL AND WESTERN NORTH DAKOTA  *****

CITY           SKY/WX    TMP DP  RH WIND       PRES   REMARKS
BISMARCK       FAIR      37  35  92 SE8       30.14R
MINOT          FAIR      39  29  67 W8        30.18R
JAMESTOWN      FAIR      39  33  79 SW3       30.14S
MINOT AFB      FAIR      32  26  81 NW10      30.17R WCI  23
GARRISON         N/A     37  30  75 N8        30.17R
WILLISTON      FAIR      35  30  82 NE6       30.22R
DICKINSON      FAIR      42  30  62 N13       30.14R
HETTINGER      FAIR      35  31  85 CALM      30.13R
$$

 *****  OTHER AIRPORT OBSERVATIONS IN OUR AREA  *****

CITY           SKY/WX    TMP DP  RH WIND       PRES   REMARKS
WALHALLA       FAIR      43  30  61 W5        30.14R
GRAFTON AIRPOR NOT AVBL
VALLEY CITY AR NOT AVBL
CANDO          FAIR      30  30 100 NW9       30.19R WCI  22
CAVALIER APRT    N/A     43  32  65 NW10      30.13R
GWINNER          N/A     37  36  93 SW8       30.17S
SHEYENNE NWR     N/A     35  35 100 SW5       29.95S
ROLLA          FAIR      39  30  70 NW13      30.16R
 ***** THE ABOVE OBSERVATIONS ARE NON NWS ARE NOT QUALITY
       CONTROLLED AND MAY MIS-REPORT RAIN FOR SNOW...
$$

  *****  WEATHER ACROSS NORTHERN MINNESOTA  *****

CITY           SKY/WX    TMP DP  RH WIND       PRES   REMARKS
FLAG ISLAND    FAIR      45  37  76 SW14      30.08S
WARROAD        FAIR      45  39  81 SW7       30.12R
ROSEAU         FAIR      45  39  81 SW5       30.12R
HALLOCK        FAIR      37  36  93 S3        30.13R
THF RVR FALLS  FAIR      44  38  79 SW12      30.14R
BAUDETTE       CLOUDY    48  37  65 SW7       30.10S
WASKISH        MOCLDY    46  36  66 CALM      30.14S
CROOKSTON      FAIR      43  39  87 S9        30.15R
STEPHEN NDAWN    N/A     39  37  93 S3          N/A
GREENBUSH NDAW   N/A     41  37  87 SW6         N/A
$$
  *****  WEATHER ACROSS CENTRAL AND WEST MINNESOTA  *****

CITY           SKY/WX    TMP DP  RH WIND       PRES   REMARKS
FOSSTON        FAIR      41  34  75 S9        30.17R
BEMIDJI        CLOUDY    44  32  62 SW7       30.16S
PARK RAPIDS    FAIR      35  31  85 CALM      30.19R
ELBOW LAKE     FAIR      37  34  87 E6        30.21S
WADENA         FAIR      37  32  81 SW5       30.20S
DETROIT LAKES  FAIR      41  34  75 S3        30.20R
MOORHEAD       FAIR      37  36  93 S9        30.19R
FERGUS FALLS   FAIR      37  34  87 S8        30.19S
MORRIS MN      FAIR      36  34  93 SE7       30.20S
STAPLES        FAIR      28  28 100 S3        30.21S
$$
  *****  WEATHER ELSEWHERE ACROSS MINNESOTA  *****

CITY           SKY/WX    TMP DP  RH WIND       PRES   REMARKS
DULUTH         FAIR      42  29  59 W3        30.21R
INTRNTL FALLS  CLOUDY    46  35  65 SW6       30.13R
ELY            FAIR      34  27  75 CALM      30.19R
CLOQUET        FAIR      32  25  74 CALM      30.21S
WHEATON        FAIR      37  34  87 SE3       30.22R
BRAINERD       FAIR      30  26  85 CALM      30.21F
HIBBING        FAIR      27  24  89 CALM      30.19S
ALEXANDRIA     FAIR      41  32  70 S7        30.21F
SAINT CLOUD    FAIR      32  32 100 CALM      30.23R
MINNEAPOLIS    FAIR      43  36  76 CALM      30.24S
$$

  *****  WEATHER ACROSS SOUTH DAKOTA  *****

CITY           SKY/WX    TMP DP  RH WIND       PRES   REMARKS
SIOUX FALLS    FAIR      35  31  85 NE3       30.20S
BROOKINGS      FAIR      36  34  92 CALM      30.20S
WATERTOWN      FAIR      38  34  85 S6        30.18F
HURON          FAIR      40  37  89 SE6       30.18S
SISSETON         N/A     34  33  96 SE5       30.18S
ABERDEEN       FAIR      35  33  92 S5        30.18R
MITCHELL       FAIR      41  39  93 SE6       30.19S
PIERRE         FAIR      37  34  89 E6        30.13R
MOBRIDGE       FAIR      40  33  76 SE8       30.10S
RAPID CITY     FAIR      40  36  86 CALM      30.06F
$$

  *****  SOME WEATHER IN NEARBY STATES *****

CITY           SKY/WX    TMP DP  RH WIND       PRES   REMARKS
GLASGOW MT     FAIR      44  31  60 SE6       30.25R
GREAT FALLS MT CLOUDY    38  25  59 N8        30.26R
CHEYENNE WY    FAIR      36  34  92 CALM      30.10F
SCOTTSBLUFF NE FAIR      37  35  92 E12       30.10S
OMAHA NE       FAIR      37  28  70 N7        30.17S
DES MOINES IA  CLOUDY    51  29  42 NE6       30.18R
DAVENPORT IA   FAIR      40  28  62 NE9       30.20S
CHICAGO IL     MOCLDY    43  28  55 N8        30.21R
EAU CLAIRE WI  FAIR      33  26  75 CALM      30.26R
LA CROSSE WI   FAIR      38  29  70 CALM      30.26S
$$

  *****  SOME NATIONAL WEATHER *****

CITY           SKY/WX    TMP DP  RH WIND       PRES   REMARKS
LA GUARDIA NY  FAIR      45  39  79 E3        30.44R
RALEIGH NC     CLOUDY    53  46  77 E7        30.31S
ATLANTA GA     LGT RAIN  59  59 100 N3        29.96S FOG
NEW ORLEANS LA FAIR      56  53  90 W8        29.96R
OKLAHOMA CITY  FAIR      49  45  86 NW10      30.06R
ALBUQUERQUE NM FAIR      55  31  39 E9        30.12S
SALT LAKE CITY FAIR      56  40  55 NW26G37   30.00R
LOS ANGELES CA CLOUDY    58  56  93 CALM      29.96S FOG
BOISE ID       FAIR      41  26  55 NW10      30.13R
SEATTLE WA     FAIR      46  37  71 NE3       30.34S
$$

*** WEATHER ACROSS MANITOBA...SASKATCHEWAN AND ONTARIO ***
                ***ONTARIO***

CITY           SKY/WX    TMP DP  RH WIND       PRES   REMARKS
GERALDTON      PTCLDY    39  23  52 SW7       30.10S
THUNDER BAY    CLEAR     27  23  86 W2        30.18S
SIOUX LOOKOUT  PTCLDY    45  36  70 SW5       30.04S
TORONTO        CLEAR     37  25  60 N6        30.38S
BIG TROUT LK   MOCLDY    41  30  65 SW10G17   29.74F
PICKLE LAKE    NOT AVBL
DRYDEN         CLEAR     45  37  76 SW10      30.05S
KENORA         PTCLDY    41  37  87 SW8       30.06R
$$
                *** MANITOBA***

CITY           SKY/WX    TMP DP  RH WIND       PRES   REMARKS
BRANDON        PTCLDY    34  30  86 SW9       30.15R
DAUPHIN        CLEAR     39  34  81 W15       30.11R
ISLAND LAKE    CLOUDY    37  32  81 W15G24    29.80R
PILOT MOUND      N/A     39  28  65 NW6         N/A
THE PAS        CLOUDY    34  28  80 W17G25    29.99R WCI  23
THOMPSON       FLURRIES  25  21  86 NW13G21   29.86R WCI  13
WINNIPEG       PTCLDY    41  30  65 W10       30.10R
LYNN LAKE      FLURRIES  18  14  86 N10G17    29.98R WCI   6
CHURCHILL      LGT SNOW  21  19  93 NE30G38   29.81R VSB 1   WCI   3
GILLAM         LGT SNOW  28  27  93 NW17      29.71R WCI  16
$$
                ***SASKATCHEWAN***

CITY           SKY/WX    TMP DP  RH WIND       PRES   REMARKS
ESTEVAN        PTCLDY    28  25  86 W7        30.22R WCI  21
KINDERSLEY     PTCLDY    32  28  86 W6        30.29R
LLOYDMINSTER   CLEAR     28  25  86 W13       30.26R WCI  18
PRINCE ALBERT  PTCLDY    36  32  87 W10       30.17R
REGINA         CLEAR     28  28 100 W6        30.22R WCI  22
YORKTON        CLEAR     36  32  87 W13       30.15R
N. BATTLEFORD  CLEAR     34  28  80 W10       30.26R
LA RONGE       LGT RAIN  34  32  93 W13G18    30.09R WCI  25
SASKATOON      CLEAR     36  30  80 W13       30.23R
SWIFT CURRENT  CLOUDY    32  28  86 SW7       30.27R
$$
NOTE: THESE ARE AUTOMATED STATIONS WITH LIMITED QUALITY CONTROL
      "FAIR" INDICATES FEW OR NO CLOUDS BELOW 12,000 FEET WITH NO
      SIGNIFICANT WEATHER AND/OR OBSTRUCTIONS TO VISIBILITY.
      SKY/WX - SKY CONDITION AND SIGNIFICANT WEATHER.
      TMP - AIR TEMPERATURE.    DP   - DEWPOINT TEMPERATURE.
      RH  - RELATIVE HUMIDITY.  PRES - PRESSURE.
      HX  - HEAT INDEX.         WCI  - WIND CHILL INDEX.
$




USA.gov is the U.S. government's official web portal to all federal, state and local government web resources and services.